Lexington Weather

Lexington, Massachusetts, USA

34°F
10/30/2020 7:04am 
  • Lexington Conditions: Light snow, Mist, Overcast
  • Temperature: 33.8°F / 1.0°CColder 1.3°F than last hour.
  • Dew Point: 33.1°FDecreased 1.2°Fsince last hour.
  • Relative Humidity: 97
  • Wind: Wind from NE NE 1 mph, 10-min avg: 2 mph, gust: 4 mph
  • Barometer: 29.77 in Steady
  • Visibility: 3 miles
  • Rain Today: 0.09 in
  •   
Southeast Middlesex County - Winter Weather Advisory
 - SEE ALL NEARBY ALERTS -

Regional Weather Roundup
for Boston / Norton, MA

        
000
ASUS41 KBOX 232204
RWRBOX

REGIONAL WEATHER ROUNDUP
NATIONAL WEATHER SERVICE BOSTON/NORTON MA
600 PM EDT FRI OCT 23 2020

NOTE:  "FAIR" INDICATES FEW OR NO CLOUDS BELOW 12,000 FEET WITH NO 
SIGNIFICANT WEATHER AND/OR OBSTRUCTIONS TO VISIBILITY.

MAZALL-232300-
EASTERN MASSACHUSETTS
  
CITY           SKY/WX    TMP DP  RH WIND       PRES   REMARKS
BOSTON         MOCLDY    56  53  90 E9        30.14F                  
BEVERLY        MOCLDY    58  52  80 E10       30.13F                  
LAWRENCE       CLOUDY    60  52  74 E7        30.15F                  
BEDFORD        CLOUDY    60  51  72 SE12      30.11F                  
BLUE HILL        N/A     56  52  86 E12       30.12F                  
NORWOOD        CLEAR     60  52  74 NE7       30.12F                  
MARSHFIELD     CLEAR     59  57  94 E5        30.14S                  
PLYMOUTH       CLEAR     59  53  80 E5        30.13F                  
TAUNTON        CLEAR     65  56  72 E3        30.12S                  
NEW BEDFORD    CLEAR     62  53  72 SE8       30.12F                  
$$

MAZALL-232300-
CAPE COD AND THE ISLANDS
  
CITY           SKY/WX    TMP DP  RH WIND       PRES   REMARKS
FALMOUTH       CLEAR     59  55  88 SE10      30.15S                  
HYANNIS        MOCLDY    58  55  90 E6        30.13S                  
CHATHAM        CLOUDY    59  54  83 E6        30.15F                  
PROVINCETOWN   PTCLDY    57  54  89 E6        30.15F                  
NANTUCKET      CLOUDY    59  54  83 E8        30.14F                  
MARTHAS VNYRD  CLEAR     59  55  87 E5        30.14S                  
$$
 
MAZALL-232300-
CENTRAL AND WESTERN MASSACHUSETTS
  
CITY           SKY/WX    TMP DP  RH WIND       PRES   REMARKS
WORCESTER      CLOUDY    64  57  78 S7        30.12F                  
FITCHBURG      CLOUDY    65  57  75 SE3       30.11F                  
ORANGE         CLOUDY    66  59  78 S5        30.10F                  
SPRINGFIELD    CLOUDY    66  59  78 SE5       30.09S                  
WESTFIELD      MOCLDY    65  60  84 S7        30.09F                  
NORTH ADAMS    CLEAR     69  57  65 E10       30.05F                  
PITTSFIELD     PTCLDY    65  57  75 S9        30.07F                  
$$
 
RIZALL-232300-
RHODE ISLAND
  
CITY           SKY/WX    TMP DP  RH WIND       PRES   REMARKS
PROVIDENCE     CLEAR     63  58  83 S5        30.12F                  
NEWPORT        CLEAR     60  54  80 SE5       30.12F                  
BLOCK ISLAND   CLEAR     58  55  90 E3        30.13F                  
SMITHFIELD     CLEAR     62  58  86 CALM        N/A                   
WESTERLY       CLEAR     60  56  86 S3        30.12F                  
$$
 
CTZALL-232300-
CONNECTICUT
  
CITY           SKY/WX    TMP DP  RH WIND       PRES   REMARKS
BRADLEY INTL   CLOUDY    65  59  81 S9        30.10S                  
HARTFORD       CLOUDY    65  58  78 S5        30.10F                  
BRIDGEPORT     CLOUDY    64  61  90 SE8       30.11F                  
DANBURY        CLOUDY    63  61  94 SE6         N/A                   
GROTON         CLEAR     59  56  89 SW5       30.12F                  
NEW HAVEN      CLOUDY    64  60  87 E6        30.11F                  
CHESTER        CLOUDY    61  59  94 SE5       30.13S                  
MERIDEN        CLOUDY    62  57  83 S7        30.11F                  
WILLIMANTIC    CLEAR     61  57  87 CALM      30.12S                  
OXFORD         CLOUDY    60  60 100 S7        30.13F FOG              
$$

MEZ002-015-021-024-NHZ003-005-008-011-012-014-VTZ005-008-232300-
NORTHERN NEW ENGLAND
  
CITY           SKY/WX    TMP DP  RH WIND       PRES   REMARKS
PORTLAND ME    CLOUDY    54  52  93 SE7       30.17F                  
BANGOR ME      CLOUDY    56  50  80 S9        30.17F                  
CONCORD NH     CLOUDY    60  52  74 E6        30.12F                  
MANCHESTER NH  CLOUDY    62  52  69 E9        30.10F                  
NASHUA NH      CLOUDY    63  56  78 E12       30.12F                  
PORTSMOUTH NH  CLOUDY    57  51  81 E8        30.13F                  
JAFFREY NH     CLOUDY    63  57  81 S6        30.11F                  
KEENE NH       CLOUDY    65  59  81 S8        30.09F                  
BURLINGTON VT  PTCLDY    72  57  59 S6        29.94F                  
MT. WASHINGTON FOG       45  45 100 SW29G45     N/A  VSB 1/16         
$$

NYZ052-076-232300-
EASTERN NEW YORK
  
CITY           SKY/WX    TMP DP  RH WIND       PRES   REMARKS
ALBANY         PTCLDY    68  58  70 S17G23    30.02S                  
NEW YORK CITY  CLOUDY    66  59  78 SW7       30.10F                  
$$
 
ANZALL-232300-
MARINE OBSERVATIONS
  
STATION/POSITION TIME  TEMP    WIND        PRES    VSBY  WAVE
                       AIR SEA DIR/SP/G                  HT/PER
                 (UTC) (F)     (DEG/KT/KT) (MB)    (MI)  (FT/S)
BOSTON BUOY      2150   58 59   90/ 12/ 14 1019.2F         4/11
BUZZARDS BAY     2100          250/  2/  2 1021.4F
NANTUCKET SOUND  2150      62  110/ 12/ 14   N/A           2/ 3
MASS BAY-STELLWA 2104   58 58  100/ 10/ 12 1020.2F  1 7/8  4/11
ISLE OF SHOALS   2100   56     100/ 10/ 11 1020.8F
S OF BLOCK IS    2126      64                N/A           5/14
$$

......................KEY.........................
  SKY/WX - SKY CONDITION/PRESENT WEATHER
  TMP    - TEMPERATURE IN FAHRENHEIT
  DWPT   - DEWPOINT IN FAHRENHEIT
  RH     - RELATIVE HUMIDITY IN PERCENT
  WIND   - DIRECTION AND SPEED IN MPH
  PRES   - MEAN SEA LEVEL PRESSURE IN INCHES OF HG
  WCI    - WIND CHILL INDEX
  VSB    - VISIBILITY IN MILES
  HX     - HEAT INDEX
  TC     - TEMPERATURE IN CELSIUS
  VRB    - VARIABLE WIND DIRECTION
  N/A    - NOT AVAILABLE
  
      

Other recent Regional Weather Roundups

Fri Oct 30, 6:04am

Fri Oct 30, 5:04am

Fri Oct 30, 4:04am

Fri Oct 30, 3:04am

Fri Oct 30, 2:04am

Fri Oct 30, 1:04am

Fri Oct 30, 12:04am

Thu Oct 29, 11:04pm

Thu Oct 29, 10:04pm

Thu Oct 29, 9:04pm

Thu Oct 29, 8:04pm

Thu Oct 29, 7:04pm

Thu Oct 29, 6:04pm

Thu Oct 29, 5:05pm

Thu Oct 29, 4:05pm

Thu Oct 29, 3:05pm

Thu Oct 29, 2:04pm

Thu Oct 29, 1:04pm

Thu Oct 29, 12:04pm

Thu Oct 29, 11:04am

Thu Oct 29, 10:04am

Thu Oct 29, 9:04am

Thu Oct 29, 8:04am

Thu Oct 29, 7:04am

Thu Oct 29, 6:04am

Thu Oct 29, 5:04am

Thu Oct 29, 4:04am

Thu Oct 29, 3:04am

Thu Oct 29, 2:04am

Thu Oct 29, 1:05am

Thu Oct 29, 12:04am

Wed Oct 28, 11:05pm

Wed Oct 28, 10:04pm

Wed Oct 28, 9:04pm

Wed Oct 28, 8:04pm

Wed Oct 28, 7:05pm

Wed Oct 28, 6:04pm

Wed Oct 28, 5:05pm

Wed Oct 28, 4:04pm

Wed Oct 28, 3:04pm

Wed Oct 28, 2:04pm

Wed Oct 28, 1:05pm

Wed Oct 28, 12:05pm

Wed Oct 28, 11:05am

Wed Oct 28, 10:04am

Wed Oct 28, 9:04am

Wed Oct 28, 8:04am

Wed Oct 28, 7:04am

Wed Oct 28, 6:04am

Wed Oct 28, 5:05am

Wed Oct 28, 4:04am

Wed Oct 28, 3:04am

Wed Oct 28, 2:04am

Wed Oct 28, 1:05am

Wed Oct 28, 12:04am

Tue Oct 27, 11:04pm

Tue Oct 27, 10:04pm

Tue Oct 27, 9:05pm

Tue Oct 27, 8:04pm

Tue Oct 27, 7:04pm

Tue Oct 27, 6:04pm

Tue Oct 27, 5:04pm

Tue Oct 27, 4:05pm

Tue Oct 27, 3:04pm

Tue Oct 27, 2:04pm

Tue Oct 27, 1:04pm

Tue Oct 27, 12:04pm

Tue Oct 27, 11:04am

Tue Oct 27, 10:04am

Tue Oct 27, 9:04am

Tue Oct 27, 8:04am

Tue Oct 27, 7:04am

Tue Oct 27, 6:04am

Tue Oct 27, 5:04am

Tue Oct 27, 4:04am

Tue Oct 27, 3:04am

Tue Oct 27, 2:05am

Tue Oct 27, 1:04am

Tue Oct 27, 12:04am

Mon Oct 26, 11:05pm

Mon Oct 26, 10:04pm

Mon Oct 26, 9:04pm

Mon Oct 26, 8:04pm

Mon Oct 26, 7:04pm

Mon Oct 26, 6:04pm

Mon Oct 26, 5:04pm

Mon Oct 26, 4:05pm

Mon Oct 26, 2:04pm

Mon Oct 26, 1:04pm

Mon Oct 26, 12:04pm

Mon Oct 26, 11:05am

Mon Oct 26, 10:04am

Mon Oct 26, 9:04am

Mon Oct 26, 8:04am

Mon Oct 26, 7:04am

Mon Oct 26, 6:04am

Mon Oct 26, 5:04am

Mon Oct 26, 4:04am

Mon Oct 26, 3:04am

Mon Oct 26, 2:04am

Mon Oct 26, 1:04am

Mon Oct 26, 12:04am

Sun Oct 25, 11:05pm

Sun Oct 25, 10:04pm

Sun Oct 25, 9:04pm

Sun Oct 25, 8:04pm

Sun Oct 25, 7:04pm

Sun Oct 25, 6:04pm

Sun Oct 25, 5:04pm

Sun Oct 25, 4:05pm

Sun Oct 25, 3:04pm

Sun Oct 25, 2:04pm

Sun Oct 25, 1:04pm

Sun Oct 25, 12:04pm

Sun Oct 25, 11:04am

Sun Oct 25, 10:04am

Sun Oct 25, 9:04am

Sun Oct 25, 8:04am

Sun Oct 25, 7:04am

Sun Oct 25, 6:04am

Sun Oct 25, 5:04am

Sun Oct 25, 4:04am

Sun Oct 25, 3:04am

Sun Oct 25, 2:04am

Sun Oct 25, 1:05am

Sun Oct 25, 12:04am

Sat Oct 24, 11:04pm

Sat Oct 24, 10:04pm

Sat Oct 24, 9:04pm

Sat Oct 24, 8:04pm

Sat Oct 24, 7:04pm

Sat Oct 24, 6:04pm

Sat Oct 24, 5:05pm

Sat Oct 24, 4:04pm

Sat Oct 24, 3:04pm

Sat Oct 24, 2:04pm

Sat Oct 24, 1:05pm

Sat Oct 24, 12:04pm

Sat Oct 24, 11:05am

Sat Oct 24, 10:05am

Sat Oct 24, 9:04am

Sat Oct 24, 8:04am

Sat Oct 24, 7:04am

Sat Oct 24, 6:04am

Sat Oct 24, 5:04am

Sat Oct 24, 4:04am

Sat Oct 24, 3:04am

Sat Oct 24, 2:04am

Sat Oct 24, 1:05am

Sat Oct 24, 12:04am

Fri Oct 23, 11:04pm

Fri Oct 23, 10:04pm

Fri Oct 23, 9:04pm

Fri Oct 23, 8:05pm

Fri Oct 23, 7:04pm

Fri Oct 23, 5:05pm

Fri Oct 23, 4:04pm

Fri Oct 23, 3:04pm

Fri Oct 23, 2:05pm

Fri Oct 23, 1:04pm

Fri Oct 23, 12:04pm

Fri Oct 23, 11:04am

Fri Oct 23, 10:04am

Fri Oct 23, 9:04am

Fri Oct 23, 8:04am

Fri Oct 23, 7:04am

Meta data:

ID: ab129650-f097-4ff1-ac2c-c153698d5644
Link: https://api.weather.gov/products/ab129650-f097-4ff1-ac2c-c153698d5644